Regional Weather Roundup
Issued by NWS Upton, NY

Current Version | Previous Version | Graphics & Text | Print | Product List | Glossary Off
Versions: 1 2 3 4 5 6 7 8 9 10 11 12 13 14 15 16 17 18 19 20 21 22 23 24 25 26 27 28 29 30 31 32 33 34 35 36 37 38 39 40 41 42 43 44 45 46 47 48 49 50
439 ASUS41 KOKX 172209 RWROKX REGIONAL WEATHER ROUNDUP NATIONAL WEATHER SERVICE NEW YORK NY 600 PM EDT TUE OCT 17 2017 NOTE: "FAIR" INDICATES FEW OR NO CLOUDS BELOW 12,000 FEET WITH NO SIGNIFICANT WEATHER AND/OR OBSTRUCTIONS TO VISIBILITY. NYZ071-072-176-178-NJZ106-104-172300- NEW YORK CITY METRO AREA CITY SKY/WX TMP DP RH WIND PRES REMARKS Central Park CLEAR 56 33 42 VRB3 30.27S Bronx Bot Gard N/A 55 32 41 CALM 30.27R LaGuardia APRT CLEAR 58 35 42 S8 30.24S Kennedy INTL PTCLDY 54 36 50 S9 30.27S Breezy Point N/A 55 N/A N/A S9 N/A Newark/Liberty PTCLDY 59 30 33 SW12 30.25S Teterboro CLEAR 57 36 45 S8 30.24S $$ NYZ177-179-078>081-172300- LONG ISLAND NEW YORK CITY SKY/WX TMP DP RH WIND PRES REMARKS Jones Beach N/A 54 N/A N/A S3G9 N/A Matinecock PT N/A 57 N/A N/A S3 N/A Farmingdale CLEAR 54 37 52 SW12 30.27R MacArthur/ISP CLEAR 54 35 48 SW8 30.26S Shirley CLEAR 55 35 47 S5 30.27R Mt Sinai Harb N/A N/A N/A N/A S2 N/A Westhampton CLEAR 51 35 54 S5 30.28S East Hampton FAIR 47 38 71 CALM 30.26R Montauk N/A 52 37 56 SW5 30.28R $$ NYZ052-065-067-172300- HUDSON VALLEY CITY SKY/WX TMP DP RH WIND PRES REMARKS White Plains CLEAR 53 32 44 S3 30.24S Larchmont Harb N/A 57 N/A N/A SE7 N/A Croton On Huds N/A 57 N/A N/A S6 N/A Newburgh CLEAR 57 34 41 SW7 30.23S Montgomery CLEAR 54 35 48 SW6 30.21S Poughkeepsie CLEAR 56 31 38 S5 30.21S Albany CLEAR 54 31 41 S8 30.19F $$ NJZ001-105-106-008-010-013-015-019>022-104-172300- NEW JERSEY CITY SKY/WX TMP DP RH WIND PRES REMARKS Newark/Liberty PTCLDY 59 30 33 SW12 30.25S Teterboro CLEAR 57 36 45 S8 30.24S Caldwell CLEAR 58 35 42 SW3 30.25S Somerville CLEAR 55 35 47 S3 30.24S Linden FAIR 59 30 34 CALM 30.26R Perth Amboy NOT AVBL Sussex CLEAR 56 35 45 SW3 30.23S Andover N/A 55 36 48 S3 30.24S Trenton CLEAR 57 34 41 SW6 30.26S Millville CLEAR 56 42 59 CALM 30.29S Atlantic City CLEAR 56 40 55 S7 30.29S Wrightstown CLEAR 54 39 58 S5 30.26S Toms River N/A 53 43 68 SE5 30.29S Belmar CLEAR 53 40 61 SE6 30.29R $$ PAZ047>061-062-071-172300- EASTERN PENNSYLVANIA CITY SKY/WX TMP DP RH WIND PRES REMARKS Philadelphia CLEAR 60 32 34 SW8 30.28S Allentown CLEAR 56 34 43 SW8 30.25S Scranton CLEAR 56 28 34 SW9 30.24R $$ CTZ002-004>006-009-010-012-RIZ004-006-007-MAZ004-011-015-172300- SOUTHERN NEW ENGLAND IN CT CITY SKY/WX TMP DP RH WIND PRES REMARKS Bradley INTL CLEAR 54 30 40 SE7 30.21S Hartford CLEAR 56 32 40 S5 30.22S Danbury CLEAR 53 32 44 S3 30.24S Wtrbury/Oxford CLEAR 53 31 42 SW3 30.24R Norwalk Harbor N/A 55 N/A N/A SW13 N/A Bridgeport CLEAR 57 35 43 SW8 30.25R Meriden CLEAR 53 36 52 S7 30.24R New Haven CLEAR 55 37 50 SW6 30.25S Chester FAIR 52 37 58 SW6 30.24S Groton CLEAR 53 35 50 W8 30.24S Wilimantic CLEAR 54 33 45 CALM 30.23S IN RI CITY SKY/WX TMP DP RH WIND PRES REMARKS Providence PTCLDY 52 38 58 S12 30.24S Block Island CLEAR 51 35 54 S7 30.26S Westerly CLEAR 54 38 54 S5 30.26R IN MA CITY SKY/WX TMP DP RH WIND PRES REMARKS Boston PTCLDY 56 27 32 SW10 30.21S Worcester CLEAR 48 28 46 SW6 30.20S Westfield CLEAR 53 32 44 SE6 30.20S Provincetown CLEAR 47 37 68 S7 30.23F Nantucket CLEAR 50 36 58 CALM 30.25R $$ ANZ330-335-338-340-345-350-353-355-172300- COASTAL MARINE OBSERVATIONS STATION/POSITION TIME SKY/WX TEMP WIND PRES VSBY WAVE AIR SEA DIR/SP/G HT/PER (UTC) (F) (DEG/KT/KT) (MB) (MI) (FT/S) NY HARB ENTRANCE 2050 54 66 190/ 4/ 6 1024.5 2/11 20 S FIRE ISLAND 2050 53 64 CALM / 2 1025.4 2/10 GREAT SOUTH BAY 2130 55 63 200/ 6/ 8 N/A 15 E BARNEGAT LI 2130 67 N/A 4/ 7 HUDSON CANYON 2050 54 65 30/ 6/ 8 1025.0 4/ 6 KINGS POINT 2148 57 64 230/ 10/ 12 1025.0 EXECUTION ROCKS 2145 60 150/ 6/ 8 N/A WESTERN LI SOUND 2049 58 220/ 8/ 12 N/A 0 CENTRAL LI SOUND NOT AVBL EASTERN LI SOUND NOT AVBL ROBBINS REEF 2148 58 190/ 12/ 14 1025.0 $$ >>>>>>>>>>>>>>>>>>>>>>>>>>>> KEY <<<<<<<<<<<<<<<<<<<<<<<<<<< > < > SKY/WX - Sky Condition/Present Weather < > TMP - Temperature in Fahrenheit < > DP - Dew Point in Fahrenheit < > RH - Relative Humidity in Percent < > WIND - Direction (from) and Speed in MPH < > PRES - Mean Sea Level Pressure (inches of Hg) < > WCI - Wind Chill Index < > VSB - VISIBILITY IN MILES < > HX - HEAT INDEX < > TC - TEMPERATURE IN CELSIUS < > VRB - VARIABLE WIND DIRECTION < > < >>>>>>>>>>>>>>>>>>>>>>>>>>>> KEY <<<<<<<<<<<<<<<<<<<<<<<<<<<

USA.gov is the U.S. government's official web portal to all federal, state and local government web resources and services.